| Date | Time | Temp. (oF) | Dew Point (oF) | Rel. Hum. (%) | Press. (in.) | Wind Dir. | Wind Speed (mph) | Hourly Rainfall (in.) |
|
|---|---|---|---|---|---|---|---|---|---|
| 1 | 02/18 | 00:00 | 21 | 19 | 94 | 30.05 | N | 2 | 0.00 |
| 2 | 02/17 | 23:00 | 21 | 19 | 94 | 30.06 | NNE | 2 | 0.00 |
| 3 | 02/17 | 22:00 | 21 | 19 | 94 | 30.06 | NE | 6 | 0.00 |
| 4 | 02/17 | 21:00 | 21 | 19 | 93 | 30.06 | NE | 7 | 0.00 |
| 5 | 02/17 | 20:00 | 21 | 19 | 93 | 30.06 | NE | 5 | 0.00 |
| 6 | 02/17 | 19:00 | 21 | 19 | 93 | 30.07 | NE | 6 | 0.00 |
| 7 | 02/17 | 18:00 | 21 | 19 | 92 | 30.06 | NW | 5 | 0.00 |
| 8 | 02/17 | 17:00 | 21 | 19 | 94 | 30.04 | NNW | 5 | 0.00 |
| 9 | 02/17 | 16:00 | 21 | 19 | 93 | 30.06 | N | 11 | 0.00 |
| 10 | 02/17 | 15:00 | 21 | 19 | 93 | 30.07 | NNE | 10 | 0.00 |
| 11 | 02/17 | 14:00 | 21 | 19 | 94 | 30.08 | N | 9 | 0.00 |
| 12 | 02/17 | 13:00 | 20 | 18 | 94 | 30.10 | NNE | 11 | 0.00 |
| 13 | 02/17 | 12:00 | 19 | 18 | 97 | 30.13 | N | 5 | 0.00 |
| 14 | 02/17 | 11:00 | 16 | 15 | 100 | 30.14 | NNE | 9 | 0.00 |
| 15 | 02/17 | 10:00 | 15 | 14 | 100 | 30.18 | NE | 9 | 0.00 |
| 16 | 02/17 | 09:00 | 14 | 14 | 100 | 30.18 | N | 11 | 0.00 |
| 17 | 02/17 | 08:00 | 12 | 12 | 100 | 30.20 | N | 5 | 0.00 |
| 18 | 02/17 | 07:00 | 12 | 11 | 99 | 30.19 | NNW | 8 | 0.00 |
| 19 | 02/17 | 06:00 | 15 | 14 | 98 | 30.15 | NNE | 10 | 0.00 |
| 20 | 02/17 | 05:00 | 15 | 14 | 97 | 30.14 | NE | 20 | 0.00 |
| 21 | 02/17 | 04:00 | 14 | 13 | 98 | 30.19 | NNE | 11 | 0.00 |
| 22 | 02/17 | 03:00 | 13 | 12 | 99 | 30.22 | NNE | 10 | 0.00 |
| 23 | 02/17 | 02:00 | 12 | 11 | 99 | 30.27 | ENE | 14 | 0.00 |
| 24 | 02/17 | 01:00 | 11 | 10 | 100 | 30.30 | NE | 6 | 0.00 |